User: anonymous   Login
Location: Roland
(31.1349°N, 85.4372°W)
Time: 05:30:15
(UTC+00:00)
Language:

Tiros 1 despin weight - Orbit

View from above orbital plane
View from above orbital plane
View from above satellite
View from above satellite

Ground track
Ground track

The orbit data is extracted from the following two-line orbital elements,

1 00115U 60002D   21208.46643945  .00000062  00000-0  34225-4 0  9997
2 00115  48.1665 126.3830 0034824 235.2938 124.4692 14.83799370251956
Epoch (UTC): 27 July 2021 11:11:40
Eccentricity: 0.0034824
inclination: 48.1665°
perigee height: 593 km
apogee height: 642 km
right ascension of ascending node: 126.3830°
argument of perigee: 235.2938°
revolutions per day: 14.83799370
mean anomaly at epoch: 124.4692°
orbit number at epoch: 25195

The dashed part of the orbit path shows where the satellite is in the earth's shadow,  

DLR